Flag for U.S.A. Weather past 2 weeks in Clearwater, Florida, U.S.A.

Now
71 °F

Sunny.


Feels Like: 67 °F
Forecast: 65 / 76 °F
Wind: 7 mph from Southwest

Location: St. Petersburg / Clearwater International Airport

Current Time: Mar 27, 2015 at 9:53:08 AM

Latest Report: Mar 27, 2015 at 8:53 AM


Visibility: 10 mi

Pressure: 29.89 "Hg

Humidity: 93%

Dew point: 69 °F

Location of ClearwaterLocation

Historic Weather in Clearwater — Graph

°F

Clearwater temperature yesterday

Maximum temperature yesterday: 83 °F (at 1:53 PM)
Minimum temperature yesterday: 67 °F (at 3:53 AM)
Average temperature yesterday: 74 °F

Past Weeks' High & Low Weather Summary

 TemperatureHumidityPressure
High87 °F (Mar 12, 3:53 PM)100% (Mar 15, 4:53 AM)30.21 "Hg (Mar 15, 4:53 AM)
Low63 °F (Mar 17, 4:53 AM)43% (Mar 13, 2:53 PM)29.82 "Hg (Mar 27, 5:53 AM)
Average74 °F78%30.06 "Hg
* Reported Mar 12 8:53 AM — Mar 27 8:53 AM, Clearwater, Weather by CustomWeather, © 2015

Note: Actual official high and low records may vary slightly from our data, if they occured in-between our weather recording intervals... More about our weather records

Advertising

Clearwater weather history for previous 24 hours

 ConditionsComfort  
Time TempWeatherWind HumidityBarometerVisibility
8:53 AM
Fri, Mar 27
71 °FSunny.7 mph93%29.89 "Hg10 mi
7:53 AM68 °FClear.7 mph96%29.87 "Hg10 mi
6:53 AM66 °FClear.6 mph96%29.82 "Hg10 mi
5:53 AM65 °FClear.6 mph97%29.82 "Hg10 mi
4:53 AM66 °FClear.8 mph96%29.83 "Hg10 mi
3:53 AM66 °FPartly cloudy.6 mph96%29.88 "Hg10 mi
3:00 AM67 °FLight rain. Mostly cloudy.14 mph93%29.93 "Hg10 mi
1:53 AM71 °FMostly cloudy.7 mph84%29.94 "Hg10 mi
12:53 AM70 °FPassing clouds.7 mph87%29.92 "Hg10 mi
11:53 PM
Thu, Mar 26
70 °FPassing clouds.No wind84%29.92 "Hg10 mi
10:53 PM70 °FPassing clouds.3 mph87%29.93 "Hg10 mi
9:53 PM70 °FClear.8 mph84%29.94 "Hg10 mi
8:53 PM69 °FPassing clouds.7 mph90%29.94 "Hg10 mi
7:53 PM77 °FPartly sunny.17 mph85%29.92 "Hg10 mi
6:53 PM78 °FPassing clouds.21 mph82%29.89 "Hg10 mi
5:53 PM80 °FPassing clouds.18 mph76%29.89 "Hg10 mi
4:53 PM83 °FSunny.22 mph63%29.90 "Hg10 mi
3:53 PM83 °FSunny.23 mph61%29.91 "Hg10 mi
2:53 PM82 °FPassing clouds.18 mph65%29.95 "Hg10 mi
1:53 PM83 °FPartly sunny.17 mph53%29.98 "Hg10 mi
12:53 PM80 °FPartly sunny.15 mph64%30.00 "Hg10 mi
11:53 AM78 °FMore clouds than sun.14 mph66%30.00 "Hg10 mi
10:53 AM80 °FPassing clouds.13 mph64%30.02 "Hg10 mi
9:53 AM74 °FOvercast.3 mph88%30.04 "Hg10 mi
Weather by CustomWeather, © 2015

See weather overviewHow to use our weather pages